Tracking 27122 objects as of 24-Mar-2023
HD Live streaming from Space Station
objects crossing your sky now

NINGXIA-1 5

Track NINGXIA-1 5 now!
10-day predictions


NORAD ID: 44783
Int'l Code: 2019-076E
Perigee: 885.5 km
Apogee: 904.1 km
Inclination: 45.0 °
Period: 102.7 minutes
Semi major axis: 7265 km
RCS: Unknown
Launch date: November 13, 2019
Source: People's Republic of China (PRC)
Launch site: Taiyaun Space Center, China (TSC)
Your satellite tracking list
Your tracking list is empty




NASA's NSSDC Master Catalog

Two Line Element Set (TLE):
1 44783U 19076E   23083.19176085  .00000469  00000-0  39133-3 0  9993
2 44783  45.0084  55.6275 0012755 313.6175  46.3569 14.01769319172144
Source of the keplerian elements: AFSPC